Wind_Speed
47 40 40 36 36 36 31 29 27 24 24 19 17 15 13 10 8 9 11 12 12 12 12 14 13 12 13 13 12 13 11 19 26 27 25 32 36 30 26 25 26 27 28
50 46 45 44 41 40 38 32 32 30 28 25 22 19 17 15 11 10 9 10 11 10 10 13 15 15 12 12 12 11 10 7 8 13 16 21 22 24 17 23 27 28 29
54 50 51 49 44 44 45 43 41 40 33 32 27 22 21 18 17 15 14 11 11 14 10 8 9 15 15 14 15 12 10 9 9 11 11 11 12 13 16 19 23 24 22
53 50 53 53 44 43 48 47 47 42 37 37 36 30 24 22 21 19 16 14 13 15 15 12 11 12 14 15 17 17 14 12 9 11 11 11 13 14 16 17 18 19 20
42 51 43 49 48 50 47 45 41 41 38 44 45 45 33 25 24 23 21 20 17 15 15 13 13 14 16 17 14 13 17 16 16 15 15 14 13 14 15 16 18 18 20
18 35 50 55 53 47 46 41 38 39 40 45 49 45 65 36 30 29 28 24 20 18 18 13 15 16 18 15 15 13 13 16 20 21 19 18 17 17 17 19 20 20 22
30 32 41 48 50 39 32 36 38 36 38 43 53 50 54 44 38 35 34 29 26 22 21 17 14 14 17 17 15 14 13 13 14 18 21 18 18 17 19 18 18 21 23
31 39 46 42 48 52 45 43 20 26 33 39 49 42 39 46 40 41 39 35 32 27 24 20 18 16 18 17 19 16 15 16 14 17 19 21 17 17 17 17 18 19 20
25 25 36 41 39 31 20 21 33 35 32 37 43 47 60 55 41 42 37 38 36 32 30 26 24 21 20 21 20 21 18 18 18 16 19 20 21 21 20 20 20 20 22
12 11 19 28 27 25 16 18 22 27 32 36 42 36 33 37 37 33 35 37 38 37 36 32 30 28 26 23 22 24 23 27 18 19 19 20 22 24 22 22 23 24 24
12 7 10 14 17 21 20 20 19 18 17 25 23 30 28 28 35 45 45 34 39 43 43 37 34 32 33 29 27 27 28 29 28 21 20 22 22 24 25 24 24 24 24
15 16 18 17 17 20 23 27 27 28 23 23 21 23 26 25 15 15 24 31 38 37 37 38 36 35 35 35 34 31 31 33 29 25 19 21 22 25 28 29 26 25 25
10 9 14 14 16 19 25 29 33 36 36 32 28 32 31 28 25 21 18 25 31 36 33 33 42 36 39 38 35 35 35 36 35 29 23 24 25 29 30 29 29 28 27
13 10 10 10 12 14 17 19 23 32 34 36 30 29 33 34 36 38 37 30 31 33 41 36 46 33 34 38 38 37 38 38 36 33 29 28 30 28 29 32 30 31 32
17 15 12 10 12 13 15 14 18 24 25 29 29 25 24 32 37 40 44 46 47 40 38 44 47 36 33 35 39 38 38 37 36 36 31 30 30 30 31 32 35 37 34
14 13 13 14 12 12 12 14 15 17 16 18 20 19 20 22 27 31 35 35 43 54 52 51 54 45 35 32 35 38 39 36 36 35 31 30 31 31 32 30 33 36 36
14 13 11 12 14 15 14 15 14 17 19 18 17 18 19 20 20 20 20 21 31 36 33 32 39 39 32 33 35 33 35 34 34 36 34 34 34 35 34 32 31 34 33
13 11 7 8 11 12 13 13 14 15 14 13 14 13 14 20 18 13 13 14 16 20 28 25 29 32 34 32 31 31 32 35 37 39 39 39 39 37 37 35 31 31 31
8 8 9 10 10 11 12 12 12 14 15 17 20 19 18 19 17 19 20 19 19 20 23 27 30 32 33 35 36 35 37 37 39 41 41 41 43 42 40 38 37 38 43
5 7 6 7 9 11 12 14 16 19 20 21 23 23 23 22 25 27 26 23 26 26 29 32 33 34 37 39 40 39 40 43 44 45 46 46 46 46 45 44 41 41 42
12 11 11 17 13 11 8 8 10 14 18 21 24 26 29 29 30 31 31 33 34 35 35 35 36 38 37 38 39 40 40 41 43 43 43 44 45 45 45 45 47 46 48
9 8 8 9 8 6 5 5 7 8 10 12 14 16 19 22 25 29 31 30 30 32 32 32 33 33 33 33 35 37 38 38 39 40 41 41 43 44 44 45 46 48 49
12 10 9 8 7 8 11 12 15 17 18 19 20 21 22 23 24 26 28 29 28 28 27 26 27 28 29 31 33 33 35 36 38 39 39 37 36 39 39 40 37 36 35
14 13 12 11 13 14 15 18 22 24 25 25 25 26 26 27 28 27 28 29 29 29 29 28 28 28 29 29 30 30 29 29 30 31 32 32 28 29 31 25 27 33 32
17 18 17 17 18 19 22 25 27 27 28 28 29 29 30 29 30 30 30 29 29 29 28 28 29 28 25 22 22 20 20 21 22 23 25 25 25 24 24 22 21 19 25
21 21 23 24 24 25 27 28 29 30 29 29 29 29 30 32 32 31 30 30 31 31 29 27 26 25 22 20 17 17 17 18 19 21 20 19 21 20 19 22 25 23 22
Wind_Direction
224 218 223 225 239 250 248 254 265 270 275 280 283 290 293 283 265 252 249 252 253 251 258 261 262 266 271 279 293 299 285 256 261 265 278 271 265 265 242 254 259 259 261
224 215 223 228 229 240 247 245 256 260 265 265 268 277 285 275 270 259 254 254 250 239 247 259 260 265 269 283 286 281 293 302 275 281 272 268 263 253 249 253 259 263 273
224 218 224 230 230 232 241 240 240 244 246 257 253 261 263 268 264 268 257 258 258 252 248 267 272 263 267 269 269 280 277 264 264 270 270 270 269 273 264 262 265 267 276
215 222 229 231 236 240 243 247 252 255 253 252 251 242 242 253 259 265 260 253 251 253 247 255 273 278 280 276 265 262 269 273 275 269 260 255 264 265 262 265 269 270 269
213 223 231 228 232 236 244 250 250 251 250 259 249 255 239 241 248 259 263 255 250 255 255 257 256 261 268 286 289 284 265 267 273 279 280 270 268 270 275 276 275 272 269
256 246 250 242 255 213 233 241 244 246 250 257 236 244 261 232 229 241 250 255 252 248 249 256 260 265 268 277 288 294 296 286 274 274 277 278 283 272 270 271 269 271 271
268 267 262 262 271 247 273 227 245 250 251 253 266 270 241 232 226 231 242 246 248 246 250 250 257 266 275 279 279 285 287 290 293 290 284 278 275 277 276 280 279 274 271
269 271 271 270 271 274 280 246 263 279 267 271 273 281 269 250 235 231 236 240 244 242 247 250 250 255 264 269 277 278 284 278 273 278 282 284 272 269 270 272 277 283 283
284 264 264 274 284 262 264 278 262 261 264 278 278 279 297 230 239 238 243 238 240 242 244 249 250 251 256 266 272 279 278 274 276 272 278 277 279 276 273 275 276 275 278
301 284 276 274 268 253 269 278 271 274 277 287 280 287 271 245 242 243 238 243 238 237 238 242 247 248 255 259 270 274 275 275 268 266 268 265 264 265 265 274 276 273 274
237 245 257 260 258 248 255 259 252 245 246 270 260 262 262 258 257 246 240 242 242 234 234 233 242 249 255 257 263 270 273 269 268 258 259 261 263 265 271 267 265 269 269
240 236 240 253 265 265 266 265 261 265 253 244 257 243 258 277 277 268 248 253 260 259 252 259 236 241 247 256 263 267 269 270 264 256 255 262 265 266 268 270 273 271 264
268 278 275 262 265 270 269 265 262 263 263 266 263 262 258 250 248 241 257 273 254 248 229 265 254 259 265 251 261 269 270 268 264 257 250 254 255 264 270 277 279 274 270
283 307 285 270 279 295 287 281 266 255 258 263 270 267 264 253 256 259 255 248 229 220 229 257 247 255 260 253 262 268 271 265 259 259 257 260 264 264 272 279 283 283 280
285 276 267 267 278 298 288 277 278 273 271 270 273 268 261 258 256 255 254 249 232 232 240 246 256 255 252 256 262 267 268 260 256 256 257 259 261 268 275 278 283 286 281
280 269 263 262 264 272 275 273 279 285 284 279 279 281 276 280 272 261 257 256 255 252 255 254 259 265 256 255 260 268 267 260 258 257 259 259 265 268 271 272 276 280 279
268 271 284 272 258 260 273 282 288 292 292 292 296 292 282 280 278 282 279 261 252 253 246 243 249 253 254 256 259 259 260 262 267 270 269 270 269 269 269 269 270 274 259
266 272 255 254 256 251 254 265 271 269 274 284 287 293 291 272 255 254 268 279 278 269 251 249 251 256 256 255 257 260 263 267 269 271 272 270 268 265 266 265 265 265 251
228 223 221 227 239 252 260 262 269 274 274 275 277 277 279 282 287 276 264 270 271 269 268 265 262 262 263 263 261 260 262 261 264 265 264 264 265 264 262 261 259 252 253
240 238 252 247 246 256 259 265 268 272 273 273 274 277 277 272 273 271 268 267 266 271 270 267 268 270 270 266 265 264 262 262 262 262 263 263 262 263 263 262 261 256 251
265 265 264 280 284 280 274 276 278 279 283 284 281 278 277 276 272 271 271 269 266 264 264 265 268 269 267 268 271 269 267 266 266 264 263 264 265 264 263 262 261 260 260
272 263 252 254 256 272 292 315 318 319 318 309 303 301 296 290 285 281 278 277 276 274 273 273 270 268 268 266 264 264 265 267 267 267 266 265 264 266 265 265 264 262 262
256 248 243 253 277 292 306 315 314 308 303 303 297 289 284 285 282 282 284 283 282 278 274 271 270 269 269 270 271 271 270 269 268 267 268 268 267 268 270 269 268 263 263
254 257 267 280 287 295 301 303 303 306 308 304 290 285 279 278 276 273 273 274 276 277 275 274 274 273 273 276 276 277 278 278 276 273 270 269 272 274 270 273 273 265 262
269 275 277 280 285 294 299 306 309 307 303 301 295 291 288 281 278 278 277 276 273 269 268 270 272 273 274 275 279 283 289 289 290 287 279 274 270 270 263 262 263 271 261
266 269 273 279 288 293 297 298 300 305 304 299 298 298 295 289 282 278 276 272 271 269 267 270 271 269 270 270 269 281 288 295 303 301 281 280 278 274 272 269 267 263 261
Height
5828 5833 5836 5839 5844 5848 5852 5852 5853 5854 5853 5853 5853 5853 5852 5851 5851 5851 5850 5850 5850 5850 5850 5851 5850 5849 5848 5847 5845 5844 5842 5841 5841 5842 5844 5845 5847 5845 5847 5851 5853 5856 5855
5816 5822 5826 5826 5830 5836 5842 5846 5844 5845 5845 5845 5845 5847 5848 5847 5847 5847 5847 5846 5846 5845 5845 5844 5844 5844 5843 5844 5843 5840 5839 5838 5836 5837 5836 5836 5837 5840 5841 5843 5847 5850 5848
5809 5813 5816 5818 5822 5825 5831 5833 5831 5830 5834 5834 5836 5837 5840 5842 5843 5843 5842 5842 5841 5842 5839 5838 5838 5839 5839 5838 5838 5838 5835 5834 5833 5834 5833 5833 5834 5835 5838 5839 5841 5841 5841
5800 5802 5806 5808 5811 5816 5819 5821 5825 5826 5828 5828 5828 5828 5830 5833 5836 5837 5837 5838 5838 5837 5836 5835 5835 5834 5835 5834 5833 5833 5832 5831 5829 5829 5829 5829 5832 5832 5833 5833 5834 5834 5834
5784 5789 5780 5793 5799 5804 5809 5809 5811 5817 5821 5821 5820 5820 5820 5824 5828 5832 5833 5833 5833 5833 5832 5831 5831 5830 5830 5831 5829 5827 5828 5827 5827 5826 5825 5825 5825 5826 5826 5827 5828 5829 5830
5768 5776 5774 5771 5747 5773 5788 5797 5800 5805 5810 5811 5798 5808 5813 5814 5816 5822 5823 5824 5826 5826 5828 5825 5826 5827 5827 5825 5825 5823 5822 5823 5823 5821 5820 5820 5820 5820 5820 5822 5823 5824 5824
5770 5773 5773 5774 5767 5767 5767 5780 5790 5793 5797 5799 5797 5800 5798 5800 5801 5807 5813 5815 5818 5819 5822 5820 5820 5819 5822 5821 5819 5817 5817 5817 5817 5819 5817 5815 5815 5816 5816 5816 5817 5818 5818
5767 5766 5765 5770 5770 5771 5774 5775 5778 5783 5789 5790 5789 5792 5780 5792 5792 5795 5800 5805 5808 5810 5814 5814 5814 5814 5815 5815 5816 5811 5812 5811 5811 5812 5812 5812 5810 5809 5809 5809 5810 5810 5809
5757 5757 5759 5760 5764 5766 5766 5768 5770 5776 5777 5781 5782 5782 5773 5776 5785 5786 5790 5796 5799 5803 5804 5804 5805 5806 5807 5807 5806 5805 5802 5802 5804 5803 5804 5805 5805 5803 5801 5801 5801 5802 5801
5752 5750 5753 5755 5756 5760 5760 5759 5761 5764 5765 5767 5766 5767 5772 5771 5773 5777 5783 5787 5790 5791 5793 5794 5796 5796 5798 5799 5799 5799 5796 5794 5795 5796 5796 5796 5797 5795 5793 5794 5795 5795 5795
5752 5749 5750 5751 5752 5755 5754 5754 5754 5755 5756 5760 5758 5760 5763 5766 5768 5769 5774 5776 5777 5779 5782 5783 5787 5789 5790 5791 5792 5792 5790 5788 5786 5786 5786 5788 5788 5788 5788 5786 5784 5786 5788
5745 5746 5748 5747 5748 5748 5748 5748 5749 5749 5751 5752 5750 5754 5757 5760 5763 5763 5763 5769 5768 5769 5772 5775 5773 5776 5779 5781 5783 5782 5782 5781 5778 5777 5778 5778 5779 5781 5779 5778 5778 5777 5777
5738 5738 5740 5741 5743 5742 5742 5742 5743 5744 5745 5746 5746 5747 5748 5751 5754 5754 5755 5758 5756 5752 5760 5764 5766 5768 5769 5770 5771 5772 5773 5772 5770 5769 5768 5768 5766 5769 5769 5769 5768 5769 5768
5731 5731 5733 5735 5737 5738 5736 5736 5736 5736 5736 5738 5738 5739 5741 5741 5743 5745 5747 5749 5749 5751 5752 5754 5756 5757 5757 5759 5761 5761 5763 5762 5761 5760 5758 5759 5760 5758 5760 5760 5758 5757 5758
5727 5727 5728 5729 5730 5731 5731 5731 5729 5728 5727 5728 5728 5729 5732 5733 5732 5732 5733 5735 5738 5740 5741 5743 5745 5744 5745 5748 5750 5750 5751 5751 5751 5750 5749 5748 5747 5748 5749 5746 5747 5748 5748
5722 5722 5722 5722 5721 5722 5724 5724 5722 5722 5721 5721 5722 5721 5721 5721 5722 5723 5723 5724 5725 5725 5726 5730 5733 5734 5734 5735 5737 5739 5741 5741 5739 5741 5739 5737 5739 5737 5738 5737 5736 5734 5735
5714 5715 5716 5717 5716 5715 5715 5716 5716 5716 5717 5717 5716 5715 5713 5711 5712 5712 5711 5711 5715 5716 5716 5717 5720 5723 5724 5725 5727 5727 5728 5729 5729 5731 5729 5729 5728 5728 5727 5726 5726 5726 5726
5706 5708 5708 5709 5710 5710 5710 5710 5710 5710 5711 5711 5709 5709 5708 5707 5706 5707 5707 5706 5707 5706 5708 5709 5710 5714 5715 5713 5713 5714 5714 5716 5717 5717 5717 5716 5715 5715 5717 5715 5711 5713 5717
5701 5702 5704 5704 5705 5705 5706 5705 5705 5705 5705 5704 5703 5703 5702 5702 5702 5701 5701 5701 5701 5701 5703 5704 5703 5704 5703 5703 5702 5700 5702 5701 5702 5703 5703 5703 5702 5701 5701 5701 5702 5701 5702
5699 5699 5700 5701 5701 5702 5702 5700 5699 5700 5700 5699 5698 5697 5697 5696 5696 5695 5694 5693 5692 5692 5692 5693 5693 5692 5692 5691 5690 5689 5687 5688 5687 5687 5686 5687 5688 5688 5687 5685 5685 5685 5685
5693 5694 5694 5695 5693 5695 5695 5696 5697 5696 5694 5693 5692 5692 5691 5689 5687 5687 5685 5684 5683 5682 5681 5679 5679 5678 5678 5678 5677 5676 5676 5676 5675 5674 5673 5672 5671 5671 5669 5670 5669 5669 5669
5689 5691 5691 5691 5692 5692 5689 5687 5687 5687 5688 5689 5687 5685 5683 5682 5680 5678 5677 5674 5672 5671 5669 5669 5667 5667 5667 5666 5665 5666 5665 5663 5661 5661 5661 5659 5656 5657 5654 5653 5653 5652 5651
5688 5688 5688 5688 5687 5687 5685 5683 5683 5684 5682 5680 5678 5677 5676 5675 5673 5669 5667 5665 5663 5661 5659 5658 5658 5657 5655 5656 5654 5652 5653 5651 5648 5648 5646 5645 5642 5641 5641 5639 5638 5637 5637
5683 5682 5681 5680 5680 5679 5678 5677 5675 5673 5671 5672 5670 5668 5666 5664 5663 5661 5659 5657 5655 5652 5650 5648 5647 5644 5643 5643 5641 5641 5639 5639 5636 5634 5633 5633 5629 5629 5629 5627 5626 5626 5626
5677 5676 5675 5674 5672 5671 5668 5666 5664 5663 5662 5660 5659 5658 5656 5655 5653 5651 5649 5647 5645 5644 5641 5639 5636 5634 5634 5633 5631 5629 5629 5628 5626 5621 5621 5622 5619 5618 5618 5617 5616 5616 5616
5671 5669 5669 5667 5665 5662 5660 5658 5656 5654 5652 5651 5649 5647 5645 5643 5642 5640 5638 5636 5635 5634 5633 5631 5628 5626 5624 5623 5622 5621 5621 5620 5618 5615 5614 5613 5611 5610 5609 5608 5608 5606 5606